DUTHSAT

Last updated on April 5, 2018, 12:15 a.m. UTC

1 42724U 98067MD  18094.34097513  .00042882  00000-0  29576-3 0  9999
2 42724  51.6354   6.7849 0001295 307.7817  52.3064 15.74138236 49024

Satellite is not in orbit.